CAPE
1309 1411 1511 1653 1575 1368 1004 941 961 742 656 634 818 919 1012 700 523 477 402 298 173 39 0 0 4 1 2 1 0 5 3 7 20 30 25 13 23 30 31 18 50 34 89
1372 1307 1504 1695 1632 1300 1157 1037 923 744 680 829 1035 1078 1147 731 572 502 361 244 72 0 0 2 3 5 6 7 61 28 36 22 12 18 23 25 18 14 16 9 31 47 101
1237 1074 650 963 1225 1446 1308 1107 1032 890 746 1051 1023 1152 1261 917 616 475 334 152 8 0 0 0 0 1 6 17 33 9 7 0 2 18 7 0 9 23 29 18 25 24 28
902 948 999 906 890 1403 1276 1077 995 828 833 1101 1076 1211 1317 1101 632 535 350 139 24 0 0 0 0 0 0 4 4 35 0 0 0 0 0 1 6 21 16 22 17 16 22
260 356 411 44 305 965 1260 1119 821 652 791 958 939 1160 1345 1165 792 655 380 201 98 13 0 0 0 0 0 0 0 0 0 0 0 0 0 0 2 14 20 46 42 39 31
365 232 166 44 262 958 1175 1048 658 589 687 800 869 1139 1343 1233 891 741 478 334 189 0 0 0 0 0 3 5 19 7 0 0 0 0 0 0 0 16 38 44 40 35 29
712 205 185 92 229 618 1068 817 656 673 769 820 977 1097 1187 1267 976 782 554 352 172 8 0 0 0 14 0 8 9 0 0 0 0 0 0 0 1 15 22 18 15 16 13
601 564 559 421 339 412 517 481 607 715 903 1056 1125 1195 1252 1213 1014 803 569 369 257 168 45 0 0 19 5 0 0 0 0 0 0 0 0 0 8 8 13 14 15 16 19
465 534 545 233 369 62 64 144 641 733 930 975 1131 1189 1162 1077 985 768 603 418 250 120 53 0 0 0 18 0 0 0 0 0 0 0 0 0 7 7 10 10 13 15 18
432 419 361 223 118 15 24 30 300 617 576 502 633 664 740 812 793 623 392 318 189 127 63 0 0 0 0 0 0 0 0 0 0 0 0 0 7 7 13 16 21 18 16
450 243 232 109 33 71 60 75 153 422 365 274 390 417 375 319 236 78 170 212 184 85 65 0 0 0 0 0 0 0 0 0 0 0 0 6 6 8 11 15 19 21 18
383 159 120 93 25 11 18 15 177 287 144 71 121 129 104 95 55 86 126 143 107 77 64 12 0 0 0 0 0 0 0 0 0 0 0 8 9 15 15 19 18 24 23
340 347 229 130 57 3 0 5 70 96 44 1 2 6 12 7 36 30 19 25 38 60 23 1 0 0 0 0 0 0 0 0 0 0 0 0 4 11 14 18 24 17 10
339 291 253 135 74 5 1 0 48 25 0 0 0 8 1 0 6 7 4 3 2 0 0 0 0 0 0 0 0 0 0 0 0 0 0 0 22 13 18 17 26 20 9
249 211 206 52 98 11 6 4 57 2 0 1 19 11 0 0 4 7 0 5 10 10 1 0 0 0 0 0 0 0 0 0 0 0 0 0 15 31 19 23 21 30 20
89 100 131 45 48 23 10 16 11 0 9 11 48 20 0 6 9 4 0 3 7 16 0 0 0 0 0 0 0 0 0 0 0 0 0 0 0 0 17 10 28 41 37
69 105 155 36 36 40 23 12 16 10 6 41 77 41 16 16 28 17 17 27 24 10 3 0 0 0 0 0 0 0 0 0 0 0 0 0 0 0 0 90 67 34 53
13 32 75 23 17 11 25 16 8 10 28 43 61 83 87 102 99 104 103 71 32 29 1 0 0 0 0 0 0 0 0 0 0 0 0 0 0 0 0 87 111 40 39
6 17 2 46 8 12 20 8 15 14 7 15 18 32 48 74 159 161 119 113 69 27 0 0 0 0 0 0 0 0 0 0 0 0 0 0 0 0 0 0 6 11 26
0 0 14 17 6 17 19 4 16 10 3 0 2 1 1 70 82 168 144 94 62 26 0 0 0 0 0 0 0 0 0 0 0 0 0 0 0 0 0 0 0 0 0
0 0 0 4 1 0 4 2 1 1 0 2 4 2 3 14 70 144 126 103 47 5 0 9 0 0 0 0 0 0 0 0 0 0 0 0 0 0 0 0 0 0 0
0 0 0 0 0 0 0 5 0 0 0 3 0 0 0 0 41 94 141 94 71 3 44 19 25 11 0 0 0 0 0 0 0 0 0 0 0 0 0 0 0 0 0
0 0 0 0 0 0 0 0 0 1 3 0 0 0 0 0 0 16 51 132 68 39 27 49 48 14 13 29 20 23 0 1 0 1 0 0 0 0 0 0 0 0 0
0 0 0 0 0 0 0 0 0 0 0 0 0 0 0 5 14 18 64 109 62 60 48 62 52 30 41 38 34 8 9 28 6 0 0 0 0 0 0 0 0 0 0
0 0 0 0 0 0 0 0 0 0 0 0 0 0 2 30 31 103 139 177 127 97 40 36 10 21 41 34 20 27 42 1 3 5 0 0 1 4 2 0 0 0 0
0 0 0 0 0 0 0 0 0 0 0 0 0 0 0 46 82 115 164 206 112 91 94 36 24 23 35 37 21 24 0 0 10 0 0 0 0 0 3 3 0 0 0
CIN
-14 -0 -9 -4 -8 -5 -65 -71 -33 -65 -89 -50 -15 0 0 -1 -2 -3 -12 -11 -29 -105 0 0 0 0 0 0 0 0 0 0 0 0 0 0 0 0 0 0 0 -1 -18
-0 -3 -2 -1 -17 -1 -26 -20 -21 -36 -53 -48 0 0 0 -0 -5 -10 -13 -6 -49 0 0 -0 0 0 0 0 -10 0 0 0 0 0 0 0 0 0 0 0 0 -10 -11
-0 -8 -117 -46 -0 0 -1 -25 -10 -23 -20 0 -1 0 0 -0 -12 -16 -16 -26 -99 0 0 0 0 0 -0 -1 -1 -1 -1 0 0 0 -1 -0 -1 -0 0 0 -0 0 -0
-46 -41 -23 -18 -2 -0 -8 -15 -0 -1 0 0 0 0 0 0 -3 -3 -12 -25 -54 0 0 0 0 0 0 -3 -1 -1 0 0 0 0 0 -1 -1 -0 0 -0 0 0 -0
-116 -183 -43 -125 -126 -0 -0 -0 0 -1 -2 0 0 0 0 0 0 -1 -16 -27 -25 -39 0 0 0 0 0 0 0 0 0 0 0 0 0 0 -0 -0 0 0 -0 0 0
-52 -103 -101 -93 -23 0 0 -0 -1 -2 -0 -0 -0 0 0 0 0 0 -10 -16 -19 0 0 0 0 -8 -33 -62 -37 -40 0 0 0 0 0 0 -0 -0 0 0 0 0 0
-7 -85 -151 -26 -24 -1 0 0 -0 -0 -0 -0 -1 -0 0 0 0 0 -7 -18 -29 -19 0 0 0 -66 0 -34 -56 0 0 0 0 0 0 0 -1 0 0 0 -0 0 0
-16 -20 -1 -8 0 0 -1 -0 -0 -1 -0 -1 -4 -0 0 -0 -0 -0 -7 -22 -32 -47 -54 0 0 -76 -36 0 0 0 0 0 0 0 0 0 -0 0 0 0 0 0 0
-65 -44 -3 -13 -0 -5 -1 -15 -3 -1 -1 -1 -1 -1 -1 -2 -1 -2 -12 -25 -40 -57 -75 0 0 -3 -72 0 0 0 0 0 0 0 0 0 0 0 0 0 0 0 0
-82 -33 -2 -0 0 -3 -7 0 -4 -3 -2 -1 -1 -2 -2 -3 -3 -11 -25 -34 -53 -59 -79 0 0 0 0 0 0 0 0 0 0 0 0 0 0 0 0 -0 0 0 -0
-22 -48 -11 -1 -92 -13 -1 -1 -0 -21 -27 -16 -7 -7 -7 -13 -32 -76 -59 -56 -58 -82 -82 -39 0 0 0 0 0 0 0 0 0 0 0 -0 0 0 -0 -0 -0 -0 -0
-16 -48 -48 -18 -45 -102 -14 -0 -5 -11 -46 -58 -40 -35 -48 -53 -88 -86 -77 -81 -77 -99 -127 -238 0 0 0 0 0 0 0 0 0 0 0 -1 -0 -0 0 0 -1 0 0
-15 -6 0 -9 -6 -42 -0 -18 -12 -19 -63 -17 -71 -214 -185 -153 -115 -142 -159 -167 -163 -212 -254 -18 0 0 0 0 0 0 0 0 0 0 0 0 -0 -0 -1 -0 0 0 0
-3 -3 0 -4 -11 -94 -84 0 -23 -34 0 0 -11 -196 -201 0 -193 -248 -278 -131 -244 -1 0 0 0 0 0 0 0 0 0 0 0 0 0 0 -0 -0 -2 -0 0 0 -0
-1 -0 -2 -20 -13 -33 -36 -6 -14 -4 0 -38 -94 -78 0 -53 -276 -294 0 -109 -110 -111 -39 0 0 0 0 0 0 0 0 0 0 0 0 0 -2 -0 0 0 0 0 -0
-50 -28 -2 -44 -18 -28 -47 -1 -4 0 -83 -132 -55 -48 0 -247 -268 -301 0 -128 -104 -74 0 0 0 0 0 0 0 0 0 0 0 0 0 0 0 0 -0 -0 0 0 0
-101 -38 -18 -9 -32 -6 -0 -1 -6 -35 -65 -76 -42 -162 -167 -195 -169 -199 -101 -72 -86 -71 -32 0 0 0 0 0 0 0 0 0 0 0 0 0 0 0 0 -1 -0 -0 0
-0 -1 -124 -1 -11 -2 -1 0 -0 -4 -31 -31 -57 -52 -68 -78 -116 -68 -39 -43 -43 -41 -2 0 0 0 0 0 0 0 0 0 0 0 0 0 0 0 0 -7 -3 -0 -0
0 0 0 -0 -25 -1 -6 -11 -0 -0 -13 -4 -15 -12 -78 -25 -53 -50 -30 -25 -22 -34 0 0 0 0 0 0 0 0 0 0 0 0 0 0 0 0 0 0 -7 -3 -3
0 0 0 0 -1 -12 0 0 -2 -0 0 0 -1 0 -6 -57 -77 -18 -14 -11 -6 -14 0 0 0 0 0 0 0 0 0 0 0 0 0 0 0 0 0 0 0 0 0
0 0 0 0 0 0 0 -0 0 0 0 0 0 0 -231 -179 -93 -40 -15 -13 -10 -18 0 -3 0 0 0 0 0 0 0 0 0 0 0 0 0 0 0 0 0 0 0
0 0 0 0 0 0 0 -0 0 0 0 0 0 0 0 0 -80 -59 -41 -32 -14 -9 -4 -9 -16 -26 0 0 0 0 0 0 0 0 0 0 0 0 0 0 0 0 0
0 0 0 0 0 0 0 0 0 0 0 0 0 0 0 0 0 -197 -96 -23 -43 -29 -18 -29 -33 -27 -2 -1 -2 0 0 -0 0 0 0 0 0 0 0 0 0 0 0
0 0 0 0 0 0 0 0 0 0 0 0 0 0 0 -60 -88 -82 -74 -42 -47 -24 -28 -36 -24 -1 0 -2 -0 -10 0 -0 -0 0 0 0 0 0 0 0 0 0 0
0 0 0 0 0 0 0 0 0 0 0 0 0 0 -32 -97 -117 -76 -46 -32 -26 -31 -45 -28 -32 -6 -4 -1 0 0 -0 -2 -6 -0 0 0 0 0 0 0 0 0 0
0 0 0 0 0 0 0 0 0 0 -7 0 0 0 0 -166 -124 -85 -46 -24 -36 -32 -46 -47 -31 -16 -5 -0 -3 -0 0 0 -0 0 0 0 0 0 -0 0 0 0 0
Wind_Speed
40 45 55 52 52 49 47 55 28 37 47 48 50 49 49 49 46 45 45 45 45 nan nan nan nan nan nan nan nan nan nan nan nan nan nan nan nan nan nan nan nan nan nan
44 43 60 62 55 45 48 46 18 39 46 50 48 50 49 50 48 48 47 44 nan nan nan nan nan nan nan nan nan nan nan nan nan nan nan nan nan nan nan nan nan nan 27
45 51 54 56 28 50 48 33 35 42 45 46 49 48 51 51 49 47 45 43 nan nan nan nan nan nan nan nan nan nan nan nan nan nan nan nan nan nan nan nan nan nan nan
43 45 62 66 40 32 45 36 36 40 42 49 47 51 52 51 48 45 41 41 nan nan nan nan nan nan nan nan nan nan nan nan nan nan nan nan nan nan nan nan nan nan nan
37 40 48 nan 44 21 36 30 35 38 45 45 47 50 52 49 46 42 43 41 nan nan nan nan nan nan nan nan nan nan nan nan nan nan nan nan nan nan nan nan nan nan nan
44 36 38 nan 28 32 32 43 43 42 44 44 47 48 48 46 43 42 39 39 37 nan nan nan nan nan nan nan nan nan nan nan nan nan nan nan nan nan nan nan nan nan nan
49 39 45 nan 24 39 50 42 47 49 42 43 46 47 48 47 41 36 33 33 35 nan nan nan nan nan nan nan nan nan nan nan nan nan nan nan nan nan nan nan nan nan nan
35 37 39 23 12 24 45 45 52 52 46 45 46 49 47 41 40 38 32 33 34 32 nan nan nan nan nan nan nan nan nan nan nan nan nan nan nan nan nan nan nan nan nan
33 29 34 21 17 nan nan 60 65 55 49 51 50 45 41 41 41 39 37 36 33 33 nan nan nan nan nan nan nan nan nan nan nan nan nan nan nan nan nan nan nan nan nan
23 16 29 25 30 nan nan nan 45 59 51 50 49 44 40 45 45 39 38 39 35 35 nan nan nan nan nan nan nan nan nan nan nan nan nan nan nan nan nan nan nan nan nan
19 21 22 31 nan nan nan nan 30 35 43 42 42 39 33 36 35 nan 34 37 36 nan nan nan nan nan nan nan nan nan nan nan nan nan nan nan nan nan nan nan nan nan nan
21 25 26 nan nan nan nan nan 32 28 23 nan 22 31 27 nan nan nan 32 38 37 nan nan nan nan nan nan nan nan nan nan nan nan nan nan nan nan nan nan nan nan nan nan
22 27 27 27 nan nan nan nan nan nan nan nan nan nan nan nan nan nan nan nan nan nan nan nan nan nan nan nan nan nan nan nan nan nan nan nan nan nan nan nan nan nan nan
23 27 29 26 nan nan nan nan nan nan nan nan nan nan nan nan nan nan nan nan nan nan nan nan nan nan nan nan nan nan nan nan nan nan nan nan nan nan nan nan nan nan nan
24 20 25 nan nan nan nan nan nan nan nan nan nan nan nan nan nan nan nan nan nan nan nan nan nan nan nan nan nan nan nan nan nan nan nan nan nan nan nan nan nan nan nan
nan 20 24 nan nan nan nan nan nan nan nan nan nan nan nan nan nan nan nan nan nan nan nan nan nan nan nan nan nan nan nan nan nan nan nan nan nan nan nan nan nan nan nan
nan 23 26 nan nan nan nan nan nan nan nan nan nan nan nan nan nan nan nan nan nan nan nan nan nan nan nan nan nan nan nan nan nan nan nan nan nan nan nan nan nan nan nan
nan nan nan nan nan nan nan nan nan nan nan nan nan nan nan 22 nan 23 15 nan nan nan nan nan nan nan nan nan nan nan nan nan nan nan nan nan nan nan nan nan 44 nan nan
nan nan nan nan nan nan nan nan nan nan nan nan nan nan nan nan 21 16 13 17 nan nan nan nan nan nan nan nan nan nan nan nan nan nan nan nan nan nan nan nan nan nan nan
nan nan nan nan nan nan nan nan nan nan nan nan nan nan nan nan nan 16 16 nan nan nan nan nan nan nan nan nan nan nan nan nan nan nan nan nan nan nan nan nan nan nan nan
nan nan nan nan nan nan nan nan nan nan nan nan nan nan nan nan nan 14 14 15 nan nan nan nan nan nan nan nan nan nan nan nan nan nan nan nan nan nan nan nan nan nan nan
nan nan nan nan nan nan nan nan nan nan nan nan nan nan nan nan nan nan 15 nan nan nan nan nan nan nan nan nan nan nan nan nan nan nan nan nan nan nan nan nan nan nan nan
nan nan nan nan nan nan nan nan nan nan nan nan nan nan nan nan nan nan nan 16 nan nan nan nan nan nan nan nan nan nan nan nan nan nan nan nan nan nan nan nan nan nan nan
nan nan nan nan nan nan nan nan nan nan nan nan nan nan nan nan nan nan nan 16 nan nan nan nan nan nan nan nan nan nan nan nan nan nan nan nan nan nan nan nan nan nan nan
nan nan nan nan nan nan nan nan nan nan nan nan nan nan nan nan nan 13 13 18 17 nan nan nan nan nan nan nan nan nan nan nan nan nan nan nan nan nan nan nan nan nan nan
nan nan nan nan nan nan nan nan nan nan nan nan nan nan nan nan nan 15 17 19 19 nan nan nan nan nan nan nan nan nan nan nan nan nan nan nan nan nan nan nan nan nan nan
Wind_Direction
251 264 266 268 257 258 236 255 237 255 265 266 271 275 277 277 276 274 272 272 273 nan nan nan nan nan nan nan nan nan nan nan nan nan nan nan nan nan nan nan nan nan nan
251 266 258 263 263 249 239 249 245 261 267 271 273 272 274 273 276 275 274 272 nan nan nan nan nan nan nan nan nan nan nan nan nan nan nan nan nan nan nan nan nan nan 265
264 264 265 262 218 238 246 247 259 262 266 269 272 275 273 274 274 275 276 273 nan nan nan nan nan nan nan nan nan nan nan nan nan nan nan nan nan nan nan nan nan nan nan
271 269 272 272 255 252 252 233 244 254 264 265 269 268 271 277 280 279 273 270 nan nan nan nan nan nan nan nan nan nan nan nan nan nan nan nan nan nan nan nan nan nan nan
264 270 276 nan 283 212 240 253 248 253 258 266 269 271 275 281 281 280 276 274 nan nan nan nan nan nan nan nan nan nan nan nan nan nan nan nan nan nan nan nan nan nan nan
274 272 276 nan 303 265 233 251 252 251 255 261 263 269 276 279 283 277 275 273 273 nan nan nan nan nan nan nan nan nan nan nan nan nan nan nan nan nan nan nan nan nan nan
264 261 275 nan 278 258 244 231 245 249 249 256 263 270 275 276 275 280 279 279 275 nan nan nan nan nan nan nan nan nan nan nan nan nan nan nan nan nan nan nan nan nan nan
259 248 258 299 307 254 232 237 244 244 245 252 259 267 270 272 274 274 280 280 274 270 nan nan nan nan nan nan nan nan nan nan nan nan nan nan nan nan nan nan nan nan nan
248 251 254 282 274 nan nan 231 229 233 243 245 252 257 263 267 270 271 274 280 278 267 nan nan nan nan nan nan nan nan nan nan nan nan nan nan nan nan nan nan nan nan nan
244 261 257 256 249 nan nan nan 222 228 227 238 244 249 255 263 267 271 274 275 275 274 nan nan nan nan nan nan nan nan nan nan nan nan nan nan nan nan nan nan nan nan nan
265 254 260 273 nan nan nan nan 264 243 225 242 242 251 255 258 256 nan 267 270 272 nan nan nan nan nan nan nan nan nan nan nan nan nan nan nan nan nan nan nan nan nan nan
276 265 271 nan nan nan nan nan 244 221 222 nan 253 255 251 nan nan nan 274 277 283 nan nan nan nan nan nan nan nan nan nan nan nan nan nan nan nan nan nan nan nan nan nan
271 274 278 285 nan nan nan nan nan nan nan nan nan nan nan nan nan nan nan nan nan nan nan nan nan nan nan nan nan nan nan nan nan nan nan nan nan nan nan nan nan nan nan
247 261 271 278 nan nan nan nan nan nan nan nan nan nan nan nan nan nan nan nan nan nan nan nan nan nan nan nan nan nan nan nan nan nan nan nan nan nan nan nan nan nan nan
236 248 273 nan nan nan nan nan nan nan nan nan nan nan nan nan nan nan nan nan nan nan nan nan nan nan nan nan nan nan nan nan nan nan nan nan nan nan nan nan nan nan nan
nan 244 259 nan nan nan nan nan nan nan nan nan nan nan nan nan nan nan nan nan nan nan nan nan nan nan nan nan nan nan nan nan nan nan nan nan nan nan nan nan nan nan nan
nan 245 257 nan nan nan nan nan nan nan nan nan nan nan nan nan nan nan nan nan nan nan nan nan nan nan nan nan nan nan nan nan nan nan nan nan nan nan nan nan nan nan nan
nan nan nan nan nan nan nan nan nan nan nan nan nan nan nan 282 nan 273 258 nan nan nan nan nan nan nan nan nan nan nan nan nan nan nan nan nan nan nan nan nan 324 nan nan
nan nan nan nan nan nan nan nan nan nan nan nan nan nan nan nan 267 241 207 173 nan nan nan nan nan nan nan nan nan nan nan nan nan nan nan nan nan nan nan nan nan nan nan
nan nan nan nan nan nan nan nan nan nan nan nan nan nan nan nan nan 181 173 nan nan nan nan nan nan nan nan nan nan nan nan nan nan nan nan nan nan nan nan nan nan nan nan
nan nan nan nan nan nan nan nan nan nan nan nan nan nan nan nan nan 165 197 214 nan nan nan nan nan nan nan nan nan nan nan nan nan nan nan nan nan nan nan nan nan nan nan
nan nan nan nan nan nan nan nan nan nan nan nan nan nan nan nan nan nan 222 nan nan nan nan nan nan nan nan nan nan nan nan nan nan nan nan nan nan nan nan nan nan nan nan
nan nan nan nan nan nan nan nan nan nan nan nan nan nan nan nan nan nan nan 231 nan nan nan nan nan nan nan nan nan nan nan nan nan nan nan nan nan nan nan nan nan nan nan
nan nan nan nan nan nan nan nan nan nan nan nan nan nan nan nan nan nan nan 254 nan nan nan nan nan nan nan nan nan nan nan nan nan nan nan nan nan nan nan nan nan nan nan
nan nan nan nan nan nan nan nan nan nan nan nan nan nan nan nan nan 255 254 259 262 nan nan nan nan nan nan nan nan nan nan nan nan nan nan nan nan nan nan nan nan nan nan
nan nan nan nan nan nan nan nan nan nan nan nan nan nan nan nan nan 253 259 264 270 nan nan nan nan nan nan nan nan nan nan nan nan nan nan nan nan nan nan nan nan nan nan